FW8892 Weather Reports


Display with metric or nautical units.
time (UTC)temp
F
wind
direction
speed
MPH
gust
MPH
rain 1hr
in
rain 24hr
in
rain mn
in
humidity
%
barometer
mb
20260505125027 61 180 3.0 8.0 0.00 0.00 0.00 77 1011.5
20260505124544 60 178 3.0 8.0 0.00 0.00 0.00 77 1011.5
20260505124029 60 148 4.0 8.0 0.00 0.00 0.00 78 1011.5
20260505123526 60 190 2.0 8.0 0.00 0.00 0.00 78 1011.5
20260505123045 59 150 2.0 8.0 0.00 0.00 0.00 78 1011.5
20260505122528 59 184 2.0 5.0 0.00 0.00 0.00 79 1011.4
20260505122030 59 180 2.0 5.0 0.00 0.00 0.00 78 1011.5
20260505121543 59 164 1.0 6.0 0.00 0.00 0.00 78 1011.5
20260505121029 59 184 2.0 6.0 0.00 0.00 0.00 78 1011.5
20260505120529 58 138 1.0 6.0 0.00 0.00 0.00 79 1011.5
20260505120100 58 163 0.0 6.0 0.00 0.00 0.00 79 1011.5
20260505115532 58 162 2.0 6.0 0.00 0.00 0.00 79 1011.5
20260505115029 58 174 1.0 5.0 0.00 0.00 0.00 79 1011.5
20260505114538 58 200 1.0 4.0 0.00 0.00 0.00 79 1011.3
20260505114031 58 168 1.0 4.0 0.00 0.00 0.00 79 1011.3
20260505113528 58 169 1.0 4.0 0.00 0.00 0.00 79 1011.1
20260505113048 57 182 1.0 4.0 0.00 0.00 0.00 79 1011.0
20260505112528 57 183 1.0 5.0 0.00 0.00 0.00 79 1011.0
20260505112028 57 184 1.0 5.0 0.00 0.00 0.00 78 1010.8
20260505111547 57 0 1.0 5.0 0.00 0.00 0.00 79 1010.8
20260505111027 57 186 1.0 5.0 0.00 0.00 0.00 79 1010.8
20260505110529 57 142 1.0 6.0 0.00 0.00 0.00 79 1010.8
20260505102028 57 0 0.0 3.0 0.00 0.00 0.00 78 1010.7
20260505101552 57 162 0.0 3.0 0.00 0.00 0.00 77 1010.7
20260505101029 57 171 0.0 4.0 0.00 0.00 0.00 77 1010.6
20260505100527 57 169 1.0 4.0 0.00 0.00 0.00 76 1010.5
20260505100048 58 0 0.0 3.0 0.00 0.00 0.00 76 1010.7
20260505095526 58 169 1.0 5.0 0.00 0.00 0.00 76 1010.7
20260505095029 58 165 0.0 5.0 0.00 0.00 0.00 76 1010.6
20260505094547 58 173 1.0 6.0 0.00 0.00 0.00 75 1010.6
20260505094028 58 165 1.0 6.0 0.00 0.00 0.00 75 1010.6
20260505093529 58 185 1.0 5.0 0.00 0.00 0.00 75 1010.6
20260505093046 58 0 2.0 5.0 0.00 0.00 0.00 75 1010.6
20260505092529 58 191 2.0 5.0 0.00 0.00 0.00 75 1010.4
20260505092028 59 183 2.0 6.0 0.00 0.00 0.00 74 1010.3
20260505091543 59 196 2.0 6.0 0.00 0.00 0.00 74 1010.4
20260505091029 59 159 2.0 5.0 0.00 0.00 0.00 74 1010.3
20260505090528 59 188 2.0 7.0 0.00 0.00 0.00 74 1010.2
20260505090045 59 161 2.0 7.0 0.00 0.00 0.00 74 1010.4
20260505085529 58 195 1.0 7.0 0.00 0.00 0.00 75 1010.3
20260505085030 58 183 3.0 6.0 0.00 0.00 0.00 75 1010.6
20260505084541 58 186 2.0 6.0 0.00 0.00 0.00 75 1010.6
20260505084029 58 219 2.0 5.0 0.00 0.00 0.00 75 1010.8
20260505083529 58 182 2.0 4.0 0.00 0.00 0.00 75 1010.8
20260505083050 58 181 0.0 4.0 0.00 0.00 0.00 75 1010.7
20260505082529 58 185 1.0 4.0 0.00 0.00 0.00 74 1010.4
20260505082028 58 172 1.0 5.0 0.00 0.00 0.00 74 1010.4
20260505081545 58 171 1.0 6.0 0.00 0.00 0.00 74 1010.3
20260505081030 59 178 1.0 6.0 0.00 0.00 0.00 74 1010.2
20260505080529 59 169 1.0 5.0 0.00 0.00 0.00 73 1010.2
20260505080043 59 184 1.0 5.0 0.00 0.00 0.00 72 1010.1
20260505075529 59 185 2.0 5.0 0.00 0.00 0.00 72 1010.1
20260505075030 60 174 0.0 4.0 0.00 0.00 0.00 71 1010.2
20260505074542 60 175 1.0 5.0 0.00 0.00 0.00 71 1010.2
20260505074029 60 189 2.0 5.0 0.00 0.00 0.00 71 1010.2
20260505073527 60 186 2.0 5.0 0.00 0.00 0.00 70 1010.1
20260505073102 61 178 1.0 6.0 0.00 0.00 0.00 70 1010.2
20260505072528 61 165 2.0 6.0 0.00 0.00 0.00 69 1010.3
20260505072027 61 155 2.0 6.0 0.00 0.00 0.00 69 1010.3
20260505071552 61 163 2.0 9.0 0.00 0.00 0.00 69 1010.3
20260505071027 61 195 3.0 9.0 0.00 0.00 0.00 68 1010.4
20260505070530 61 188 2.0 10.0 0.00 0.00 0.00 68 1010.3
20260505070046 62 184 2.0 10.0 0.00 0.00 0.00 68 1010.3
20260505065529 62 165 3.0 10.0 0.00 0.00 0.00 68 1010.3
20260505065029 62 166 3.0 9.0 0.00 0.00 0.00 68 1010.3
20260505064547 62 178 3.0 8.0 0.00 0.00 0.00 68 1010.3
20260505064029 62 219 2.0 7.0 0.00 0.00 0.00 67 1010.5
20260505063528 62 163 2.0 6.0 0.00 0.00 0.00 67 1010.6
20260505063044 62 180 3.0 6.0 0.00 0.00 0.00 67 1010.7
20260505062527 62 200 2.0 6.0 0.00 0.00 0.00 67 1010.8
20260505062029 62 169 2.0 7.0 0.00 0.00 0.00 67 1010.8
20260505061550 62 184 2.0 7.0 0.00 0.00 0.00 66 1010.7
20260505061029 62 205 2.0 7.0 0.00 0.00 0.00 66 1010.8
20260505060530 62 161 2.0 6.0 0.00 0.00 0.00 66 1010.8
20260505060042 62 168 2.0 6.0 0.00 0.00 0.00 66 1010.8
20260505055530 63 204 2.0 9.0 0.00 0.00 0.00 66 1010.9
20260505055030 63 180 2.0 9.0 0.00 0.00 0.00 66 1011.0
20260505054622 63 189 2.0 7.0 0.00 0.00 0.00 65 1011.0
20260505054030 63 192 2.0 6.0 0.00 0.00 0.00 65 1011.0
20260505053529 63 197 2.0 6.0 0.00 0.00 0.00 65 1011.2
20260505053100 63 204 2.0 6.0 0.00 0.00 0.00 65 1011.0
20260505052529 63 200 2.0 9.0 0.00 0.00 0.00 65 1011.2
20260505052030 63 188 2.0 9.0 0.00 0.00 0.00 65 1011.1
20260505051547 63 226 2.0 7.0 0.00 0.00 0.00 64 1011.1
20260505051032 63 192 1.0 6.0 0.00 0.00 0.00 64 1011.1
20260505050529 64 196 2.0 6.0 0.00 0.00 0.00 63 1011.1
20260505041555 66 192 3.0 9.0 0.00 0.00 0.00 60 1010.8
20260505041030 66 194 3.0 9.0 0.00 0.00 0.00 59 1010.8
20260505040529 66 202 2.0 8.0 0.00 0.00 0.00 60 1010.7
20260505040047 66 249 4.0 8.0 0.00 0.00 0.00 59 1010.7
20260505035530 66 242 3.0 11.0 0.00 0.00 0.00 59 1010.7
20260505035029 66 231 4.0 11.0 0.00 0.00 0.00 59 1010.7
20260505034543 67 175 3.0 7.0 0.00 0.00 0.00 59 1010.6
20260505034026 67 171 3.0 11.0 0.00 0.00 0.00 58 1010.6
20260505033529 67 152 3.0 12.0 0.00 0.00 0.00 58 1010.7
20260505033042 67 220 5.0 12.0 0.00 0.00 0.00 58 1010.6
20260505032529 67 201 4.0 12.0 0.00 0.00 0.00 58 1010.5
20260505032028 67 192 2.0 10.0 0.00 0.00 0.00 58 1010.5
20260505031556 67 200 3.0 11.0 0.00 0.00 0.00 58 1010.4
20260505031029 67 188 2.0 11.0 0.00 0.00 0.00 57 1010.3
20260505030529 67 110 3.0 11.0 0.00 0.00 0.00 58 1010.1
20260505030047 67 180 5.0 11.0 0.00 0.00 0.00 58 1010.1
20260505025529 68 189 4.0 10.0 0.00 0.00 0.00 58 1010.1
20260505025030 68 183 4.0 11.0 0.00 0.00 0.00 58 1010.2
20260505024546 68 190 5.0 11.0 0.00 0.00 0.00 57 1010.1
20260505024029 68 189 4.0 10.0 0.00 0.00 0.00 57 1010.0
20260505023529 68 203 3.0 10.0 0.00 0.00 0.00 57 1010.0
20260505023056 68 200 4.0 10.0 0.00 0.00 0.00 57 1010.0
20260505022529 68 180 3.0 9.0 0.00 0.00 0.00 57 1010.0
20260505022028 68 184 3.0 10.0 0.00 0.00 0.00 57 1010.1
20260505021543 68 178 3.0 11.0 0.00 0.00 0.00 56 1010.0
20260505021029 68 225 4.0 11.0 0.00 0.00 0.00 56 1010.0
20260505020529 68 215 2.0 7.0 0.00 0.00 0.00 56 1010.0
20260505020041 69 192 3.0 7.0 0.00 0.00 0.00 55 1009.9
20260505015529 69 175 2.0 7.0 0.00 0.00 0.00 54 1009.9
20260505015030 69 173 3.0 8.0 0.00 0.00 0.00 54 1009.9
20260505014551 70 189 2.0 8.0 0.00 0.00 0.00 53 1009.9
20260505014031 70 219 2.0 8.0 0.00 0.00 0.00 53 1009.8
20260505013529 70 194 3.0 11.0 0.00 0.00 0.00 53 1009.9
20260505013104 70 192 4.0 11.0 0.00 0.00 0.00 52 1009.9
20260505012529 70 196 4.0 9.0 0.00 0.00 0.00 52 1009.9
20260505012029 71 168 3.0 10.0 0.00 0.00 0.00 52 1009.9
20260505011548 71 202 4.0 11.0 0.00 0.00 0.00 52 1009.9
20260505011029 71 152 4.0 12.0 0.00 0.00 0.00 51 1009.8
20260505010529 71 198 5.0 12.0 0.00 0.00 0.00 51 1009.8
20260505010044 71 205 3.0 11.0 0.00 0.00 0.00 51 1009.8
20260505005529 72 178 3.0 10.0 0.00 0.00 0.00 51 1009.6
20260505005029 72 177 5.0 10.0 0.00 0.00 0.00 51 1009.7
20260505004548 72 188 3.0 10.0 0.00 0.00 0.00 50 1009.7
20260505004029 72 190 3.0 10.0 0.00 0.00 0.00 50 1009.7
20260505003529 73 203 4.0 10.0 0.00 0.00 0.00 50 1009.7
20260505003047 73 180 4.0 10.0 0.00 0.00 0.00 50 1009.8
20260505002530 73 192 5.0 10.0 0.00 0.00 0.00 50 1009.8
20260505002030 73 192 2.0 8.0 0.00 0.00 0.00 50 1009.9
20260505001551 74 195 2.0 8.0 0.00 0.00 0.00 49 1009.8
20260505001029 74 177 4.0 10.0 0.00 0.00 0.00 49 1009.8
20260505000529 74 201 5.0 12.0 0.00 0.00 0.00 48 1009.9
20260505000105 75 235 4.0 13.0 0.00 0.00 0.00 48 1009.9
20260504235529 75 188 3.0 13.0 0.00 0.00 0.00 48 1009.8
20260504235029 75 178 2.0 13.0 0.00 0.00 0.00 48 1009.9
20260504234543 75 205 4.0 15.0 0.00 0.00 0.00 48 1010.0
20260504234030 76 200 5.0 15.0 0.00 0.00 0.00 47 1010.0
20260504233530 76 234 7.0 18.0 0.00 0.00 0.00 46 1009.9
20260504233041 76 207 5.0 18.0 0.00 0.00 0.00 46 1010.0
20260504232530 76 227 4.0 14.0 0.00 0.00 0.00 45 1010.0
20260504232029 77 251 4.0 14.0 0.00 0.00 0.00 45 1010.2
20260504231546 77 249 4.0 11.0 0.00 0.00 0.00 47 1010.2
20260504231029 77 216 3.0 11.0 0.00 0.00 0.00 46 1010.2
20260504230530 77 215 5.0 11.0 0.00 0.00 0.00 45 1010.1
20260504225530 78 224 2.0 11.0 0.00 0.00 0.00 45 1010.2
20260504225030 78 221 3.0 11.0 0.00 0.00 0.00 44 1010.2
20260504224545 78 355 4.0 11.0 0.00 0.00 0.00 45 1010.3
20260504224029 78 262 3.0 12.0 0.00 0.00 0.00 46 1010.2
20260504223529 78 228 5.0 12.0 0.00 0.00 0.00 44 1010.2
20260504223042 78 277 3.0 15.0 0.00 0.00 0.00 44 1010.3
20260504222529 78 284 5.0 15.0 0.00 0.00 0.00 43 1010.3
20260504222029 78 314 4.0 11.0 0.00 0.00 0.00 43 1010.4
20260504221550 79 220 5.0 15.0 0.00 0.00 0.00 43 1010.3
20260504221031 79 219 3.0 15.0 0.00 0.00 0.00 45 1010.3
20260504220532 79 232 6.0 15.0 0.00 0.00 0.00 45 1010.3
20260504220048 79 252 6.0 14.0 0.00 0.00 0.00 45 1010.3
20260504215530 79 290 7.0 14.0 0.00 0.00 0.00 45 1010.2
20260504215029 79 184 6.0 15.0 0.00 0.00 0.00 46 1010.2
20260504214547 79 213 7.0 18.0 0.00 0.00 0.00 43 1010.2
20260504214029 79 175 8.0 18.0 0.00 0.00 0.00 44 1010.2
20260504213529 79 226 3.0 25.0 0.00 0.00 0.00 44 1010.1
20260504213045 80 213 8.0 25.0 0.00 0.00 0.00 42 1010.1
20260504212529 80 276 4.0 18.0 0.00 0.00 0.00 43 1010.0
20260504212031 81 135 7.0 18.0 0.00 0.00 0.00 42 1010.0
20260504211550 81 316 5.0 14.0 0.00 0.00 0.00 41 1010.1
20260504211030 81 219 6.0 15.0 0.00 0.00 0.00 44 1010.0
20260504210529 80 218 6.0 21.0 0.00 0.00 0.00 42 1010.1
20260504210053 80 209 6.0 21.0 0.00 0.00 0.00 41 1010.1
20260504205530 80 199 6.0 16.0 0.00 0.00 0.00 41 1010.4
20260504205029 80 275 5.0 16.0 0.00 0.00 0.00 43 1010.2
20260504204548 80 211 7.0 16.0 0.00 0.00 0.00 42 1010.3
20260504204029 80 161 8.0 20.0 0.00 0.00 0.00 43 1010.2
20260504203529 80 178 5.0 20.0 0.00 0.00 0.00 44 1010.2
20260504203054 80 261 8.0 22.0 0.00 0.00 0.00 42 1010.3
20260504202529 80 246 10.0 22.0 0.00 0.00 0.00 42 1010.6
20260504202030 80 221 8.0 22.0 0.00 0.00 0.00 43 1010.5
20260504201541 80 180 6.0 20.0 0.00 0.00 0.00 46 1010.5
20260504201029 81 230 7.0 20.0 0.00 0.00 0.00 44 1010.7
20260504200529 81 217 7.0 16.0 0.00 0.00 0.00 44 1010.5
20260504200050 81 177 9.0 16.0 0.00 0.00 0.00 45 1010.8
20260504195528 82 208 6.0 15.0 0.00 0.00 0.00 46 1010.9
20260504195029 81 202 3.0 20.0 0.00 0.00 0.00 46 1010.9
20260504194539 81 183 5.0 20.0 0.00 0.00 0.00 45 1011.0
20260504194030 81 240 8.0 17.0 0.00 0.00 0.00 45 1011.1
20260504193528 81 236 4.0 19.0 0.00 0.00 0.00 48 1011.1
20260504193047 81 179 7.0 19.0 0.00 0.00 0.00 47 1011.1
20260504192529 81 175 5.0 15.0 0.00 0.00 0.00 49 1011.1
20260504192029 81 202 4.0 15.0 0.00 0.00 0.00 50 1011.3
20260504191546 81 257 3.0 15.0 0.00 0.00 0.00 48 1011.3
20260504191030 81 203 6.0 13.0 0.00 0.00 0.00 45 1011.3
20260504190527 81 217 6.0 13.0 0.00 0.00 0.00 49 1011.5
20260504190041 81 166 7.0 15.0 0.00 0.00 0.00 47 1011.6
20260504185529 80 159 5.0 19.0 0.00 0.00 0.00 48 1011.7
20260504185031 81 207 7.0 19.0 0.00 0.00 0.00 46 1011.6
20260504184540 80 221 4.0 12.0 0.00 0.00 0.00 48 1011.6
20260504184029 80 207 4.0 14.0 0.00 0.00 0.00 50 1011.8
20260504183530 80 239 4.0 14.0 0.00 0.00 0.00 52 1011.7
20260504183048 80 241 4.0 14.0 0.00 0.00 0.00 47 1011.7
20260504182529 80 266 6.0 18.0 0.00 0.00 0.00 48 1011.9
20260504182027 81 262 6.0 18.0 0.00 0.00 0.00 47 1011.8
20260504181554 80 188 4.0 18.0 0.00 0.00 0.00 50 1011.9
20260504181030 80 322 5.0 17.0 0.00 0.00 0.00 48 1011.9
20260504180528 80 209 6.0 17.0 0.00 0.00 0.00 47 1011.9
20260504180046 80 206 3.0 11.0 0.00 0.00 0.00 48 1012.0
20260504175527 80 289 4.0 17.0 0.00 0.00 0.00 50 1012.0
20260504175030 80 208 6.0 17.0 0.00 0.00 0.00 47 1012.0
20260504174541 80 211 4.0 11.0 0.00 0.00 0.00 50 1012.0
20260504174031 80 184 4.0 15.0 0.00 0.00 0.00 51 1012.0
20260504173527 79 293 4.0 16.0 0.00 0.00 0.00 49 1011.9
20260504173049 79 230 6.0 18.0 0.00 0.00 0.00 49 1012.0
20260504172533 79 283 5.0 18.0 0.00 0.00 0.00 50 1012.0
20260504172029 79 171 5.0 14.0 0.00 0.00 0.00 52 1012.2
20260504171546 79 195 4.0 9.0 0.00 0.00 0.00 51 1012.2
20260504171030 79 216 4.0 10.0 0.00 0.00 0.00 50 1012.1
20260504170527 78 238 2.0 11.0 0.00 0.00 0.00 51 1012.4
20260504151031 73 211 5.0 13.0 0.00 0.00 0.00 57 1013.5
20260504150531 73 202 2.0 10.0 0.00 0.00 0.00 59 1013.6
20260504141030 68 173 5.0 13.0 0.00 0.00 0.00 63 1013.8
20260504140530 67 214 5.0 13.0 0.00 0.00 0.00 64 1013.8